When you browse on this site, cookies collect data to enhance your experience and personalize the content and advertising you see.
Visit our Privacy Policy to learn more. By continuing to use the site, you agree to this use of cookies and data.
  • In Czech Republic
  • List of Countries
  • For 7 days
  • Water Temperature
  • Weather Map
  • Weather Widgets
  • user-avatar
    Login

    Hourly Weather Salta

    Today, 19 January, Sunday

    Time Temperature Precipitation Wind Pressure Humidity
    00:00 +19°C° 0 mm 0 mps 653 mmHg 90%
    01:00 +19°C° 0 mm 0 mps 652 mmHg 90%
    02:00 +19°C° 0 mm 0 mps 652 mmHg 90%
    03:00 +18°C° 0 mm 0 mps 652 mmHg 91%
    04:00 +18°C° 0 mm 0 mps 652 mmHg 92%
    05:00 +18°C° 0 mm 0 mps 652 mmHg 93%
    06:00 +19°C° 0 mm 0 mps 652 mmHg 87%
    07:00 +21°C° 0 mm 0 mps 653 mmHg 82%
    08:00 +22°C° 0 mm 0 mps 654 mmHg 77%
    09:00 +26°C° 0 mm 1 mps 654 mmHg 71%
    10:00 +27°C° 0 mm 2 mps 654 mmHg 66%
    11:00 +29°C° 0 mm 2 mps 654 mmHg 61%
    12:00 +29°C° 0 mm 2 mps 653 mmHg 59%
    13:00 +30°C° 0 mm 2 mps 652 mmHg 58%
    14:00 +31°C° 0 mm 2 mps 652 mmHg 57%
    15:00 +30°C° 0.1 mm 2 mps 651 mmHg 58%
    16:00 +30°C° 0.1 mm 2 mps 651 mmHg 60%
    17:00 +30°C° 0.1 mm 2 mps 650 mmHg 61%
    18:00 +28°C° 0.6 mm 2 mps 650 mmHg 69%
    19:00 +26°C° 0.6 mm 1 mps 650 mmHg 76%
    20:00 +24°C° 0.6 mm 1 mps 650 mmHg 83%
    21:00 +24°C° 1 mm 1 mps 651 mmHg 84%
    22:00 +24°C° 1 mm 1 mps 651 mmHg 85%
    23:00 +24°C° 1 mm 1 mps 652 mmHg 86%

    Tomorrow, 20 January, Monday

    Time Temperature Precipitation Wind Pressure Humidity
    00:00 +24°C° 0.3 mm 1 mps 652 mmHg 86%
    01:00 +23°C° 0.3 mm 1 mps 651 mmHg 86%
    02:00 +23°C° 0.3 mm 1 mps 651 mmHg 85%
    03:00 +23°C° 0 mm 1 mps 651 mmHg 86%
    04:00 +23°C° 0 mm 1 mps 651 mmHg 86%
    05:00 +23°C° 0 mm 1 mps 651 mmHg 86%
    06:00 +24°C° 0.2 mm 1 mps 652 mmHg 83%
    07:00 +25°C° 0.2 mm 1 mps 652 mmHg 79%
    08:00 +26°C° 0.2 mm 1 mps 653 mmHg 75%
    09:00 +28°C° 0.8 mm 1 mps 653 mmHg 70%
    10:00 +30°C° 0.8 mm 1 mps 653 mmHg 64%
    11:00 +31°C° 0.8 mm 1 mps 653 mmHg 58%
    12:00 +31°C° 0.8 mm 1 mps 653 mmHg 57%
    13:00 +31°C° 0.8 mm 1 mps 652 mmHg 57%
    14:00 +31°C° 0.8 mm 1 mps 652 mmHg 57%
    15:00 +31°C° 0.1 mm 1 mps 651 mmHg 57%
    16:00 +31°C° 0.1 mm 1 mps 651 mmHg 57%
    17:00 +31°C° 0.1 mm 1 mps 650 mmHg 58%
    18:00 +29°C° 0.1 mm 1 mps 650 mmHg 62%
    19:00 +27°C° 0.1 mm 1 mps 650 mmHg 67%
    20:00 +26°C° 0.1 mm 1 mps 650 mmHg 72%
    21:00 +25°C° 0.5 mm 1 mps 651 mmHg 75%
    22:00 +24°C° 0.5 mm 1 mps 651 mmHg 77%
    23:00 +24°C° 0.5 mm 1 mps 651 mmHg 80%

    Day after tomorrow, 21 January, Tuesday

    Time Temperature Precipitation Wind Pressure Humidity
    00:00 +23°C° 0.9 mm 1 mps 651 mmHg 81%
    01:00 +23°C° 0.9 mm 1 mps 650 mmHg 83%
    02:00 +23°C° 0.9 mm 1 mps 650 mmHg 84%
    03:00 +23°C° 0.3 mm 1 mps 650 mmHg 84%
    04:00 +23°C° 0.3 mm 1 mps 650 mmHg 84%
    05:00 +23°C° 0.3 mm 1 mps 650 mmHg 84%
    06:00 +24°C° 0 mm 1 mps 650 mmHg 81%
    07:00 +25°C° 0 mm 1 mps 651 mmHg 78%
    08:00 +26°C° 0 mm 1 mps 651 mmHg 75%
    09:00 +29°C° 0.1 mm 1 mps 652 mmHg 65%
    10:00 +31°C° 0.1 mm 1 mps 653 mmHg 55%
    11:00 +33°C° 0.1 mm 1 mps 653 mmHg 46%
    12:00 +32°C° 0.7 mm 2 mps 653 mmHg 50%
    13:00 +31°C° 0.7 mm 2 mps 652 mmHg 54%
    14:00 +31°C° 0.7 mm 3 mps 651 mmHg 59%
    15:00 +28°C° 4.9 mm 3 mps 650 mmHg 70%
    16:00 +25°C° 4.9 mm 3 mps 649 mmHg 81%
    17:00 +21°C° 4.9 mm 3 mps 648 mmHg 92%
    18:00 +21°C° 2.4 mm 3 mps 649 mmHg 94%
    19:00 +20°C° 2.4 mm 2 mps 650 mmHg 95%
    20:00 +21°C° 2.4 mm 1 mps 650 mmHg 97%
    21:00 +21°C° 0.7 mm 1 mps 651 mmHg 95%
    22:00 +21°C° 0.7 mm 1 mps 652 mmHg 92%
    23:00 +22°C° 0.7 mm 1 mps 653 mmHg 90%

    22 January, Wednesday

    Time Temperature Precipitation Wind Pressure Humidity
    00:00 +21°C° 0 mm 1 mps 652 mmHg 89%
    01:00 +21°C° 0 mm 1 mps 652 mmHg 89%
    02:00 +21°C° 0 mm 1 mps 652 mmHg 88%
    03:00 +21°C° 0 mm 1 mps 652 mmHg 87%
    04:00 +21°C° 0 mm 1 mps 652 mmHg 86%
    05:00 +21°C° 0 mm 1 mps 652 mmHg 85%
    06:00 +22°C° 0 mm 1 mps 652 mmHg 81%
    07:00 +21°C° 0 mm 0 mps 653 mmHg 78%
    08:00 +22°C° 0 mm 0 mps 653 mmHg 74%
    09:00 +26°C° 0 mm 1 mps 653 mmHg 67%
    10:00 +28°C° 0 mm 1 mps 654 mmHg 59%
    11:00 +30°C° 0 mm 1 mps 654 mmHg 51%
    12:00 +31°C° 0.1 mm 2 mps 654 mmHg 49%
    13:00 +31°C° 0.1 mm 2 mps 653 mmHg 47%
    14:00 +32°C° 0.1 mm 2 mps 653 mmHg 45%
    15:00 +31°C° 0.2 mm 2 mps 652 mmHg 49%
    16:00 +30°C° 0.2 mm 2 mps 652 mmHg 54%
    17:00 +29°C° 0.2 mm 2 mps 651 mmHg 58%
    18:00 +27°C° 1.7 mm 2 mps 651 mmHg 68%
    19:00 +25°C° 1.7 mm 2 mps 651 mmHg 78%
    20:00 +23°C° 1.7 mm 2 mps 651 mmHg 88%
    21:00 +21°C° 1.5 mm 2 mps 651 mmHg 89%
    22:00 +22°C° 1.5 mm 1 mps 652 mmHg 89%
    23:00 +22°C° 1.5 mm 1 mps 652 mmHg 89%

    23 January, Thursday

    Time Temperature Precipitation Wind Pressure Humidity
    00:00 +21°C° 0.6 mm 1 mps 652 mmHg 90%
    01:00 +21°C° 0.6 mm 1 mps 652 mmHg 90%
    02:00 +19°C° 0.6 mm 0 mps 651 mmHg 91%
    03:00 +19°C° 0.2 mm 0 mps 651 mmHg 92%
    04:00 +19°C° 0.2 mm 0 mps 651 mmHg 92%
    05:00 +20°C° 0.2 mm 1 mps 651 mmHg 93%
    06:00 +22°C° 0 mm 1 mps 652 mmHg 90%
    07:00 +23°C° 0 mm 1 mps 652 mmHg 87%
    08:00 +24°C° 0 mm 1 mps 653 mmHg 84%
    09:00 +25°C° 0.2 mm 1 mps 653 mmHg 78%
    10:00 +27°C° 0.2 mm 1 mps 654 mmHg 72%
    11:00 +28°C° 0.2 mm 1 mps 654 mmHg 65%
    12:00 +29°C° 0.5 mm 1 mps 653 mmHg 64%
    13:00 +29°C° 0.5 mm 1 mps 653 mmHg 62%
    14:00 +30°C° 0.5 mm 1 mps 652 mmHg 60%
    15:00 +30°C° 0.1 mm 1 mps 652 mmHg 59%
    16:00 +30°C° 0.1 mm 1 mps 651 mmHg 58%
    17:00 +29°C° 0.1 mm 2 mps 651 mmHg 57%
    18:00 +28°C° 0 mm 1 mps 651 mmHg 62%
    19:00 +26°C° 0 mm 1 mps 651 mmHg 67%
    20:00 +24°C° 0 mm 1 mps 651 mmHg 72%
    21:00 +24°C° 0 mm 1 mps 651 mmHg 73%
    22:00 +23°C° 0 mm 1 mps 651 mmHg 73%
    23:00 +23°C° 0 mm 1 mps 652 mmHg 74%

    24 January, Friday

    Time Temperature Precipitation Wind Pressure Humidity
    00:00 +23°C° 0 mm 1 mps 651 mmHg 74%
    01:00 +22°C° 0 mm 1 mps 651 mmHg 74%
    02:00 +22°C° 0 mm 1 mps 651 mmHg 74%
    03:00 +19°C° 0 mm 0 mps 651 mmHg 75%
    04:00 +19°C° 0 mm 0 mps 651 mmHg 75%
    05:00 +18°C° 0 mm 0 mps 651 mmHg 76%
    06:00 +20°C° 0 mm 0 mps 651 mmHg 72%
    07:00 +21°C° 0 mm 0 mps 652 mmHg 68%
    08:00 +24°C° 0 mm 1 mps 653 mmHg 65%
    09:00 +26°C° 0 mm 1 mps 653 mmHg 61%
    10:00 +28°C° 0 mm 1 mps 653 mmHg 56%
    11:00 +29°C° 0 mm 2 mps 653 mmHg 52%
    12:00 +30°C° 0 mm 2 mps 653 mmHg 50%
    13:00 +31°C° 0 mm 2 mps 652 mmHg 47%
    14:00 +32°C° 0 mm 2 mps 652 mmHg 44%
    15:00 +31°C° 0 mm 2 mps 651 mmHg 44%
    16:00 +31°C° 0 mm 2 mps 651 mmHg 44%
    17:00 +31°C° 0 mm 2 mps 650 mmHg 44%
    18:00 +29°C° 0 mm 1 mps 650 mmHg 51%
    19:00 +27°C° 0 mm 1 mps 650 mmHg 57%
    20:00 +24°C° 0 mm 1 mps 650 mmHg 63%
    21:00 +24°C° 0.1 mm 1 mps 651 mmHg 63%
    22:00 +24°C° 0.1 mm 1 mps 652 mmHg 63%
    23:00 +24°C° 0.1 mm 2 mps 652 mmHg 63%
    Show more